Overview Statistics Trail Chart Weather Telemetry Raw packets
 

This is the latest recevied weather packets stored in our database for station/object OM5AST-13. If no packets are shown the sender has not sent any weather packets the latest 10 day(s).

<< 8 9 10 11 12 13 14 >>
Time Temp. Humidity Pressure Rain* Wind** Luminosity Snow
1788343435 25° C 45% - 0 mm - 0 W/m² -
1788342235 25° C 46% - 0 mm - 0 W/m² -
1788341035 23.89° C 47% - 0 mm - 0 W/m² -
1788339835 23.89° C 47% - 0 mm - 0 W/m² -
1788338635 23.33° C 46% - 0 mm - 0 W/m² -
1788337435 22.78° C 48% - 0 mm - 0 W/m² -
1788336235 22.22° C 51% - 0 mm - 0 W/m² -
1788335035 21.67° C 51% - 0 mm - 0 W/m² -
1788333835 21.11° C 52% - 0 mm - 0 W/m² -
1788332635 21.11° C 53% - 0 mm - 0 W/m² -
1788331435 20.56° C 54% - 0 mm - 0 W/m² -
1788330235 20.56° C 55% - 0 mm - 0 W/m² -
1788329035 20° C 56% - 0 mm - 0 W/m² -
1788327835 19.44° C 57% - 0 mm - 0 W/m² -
1788326635 19.44° C 60% - 0 mm - 0 W/m² -
1788325435 18.89° C 60% - 0 mm - 0 W/m² -
1788324235 18.89° C 60% - 0 mm - 0 W/m² -
1788323035 18.89° C 60% - 0 mm - 0 W/m² -
1788321835 18.89° C 58% - 0 mm - 0 W/m² -
1788320635 18.89° C 58% - 0 mm - 0 W/m² -
1788319435 18.89° C 58% - 0 mm - 0 W/m² -
1788318235 19.44° C 59% - 0 mm - 0 W/m² -
1788317035 20° C 58% - 0 mm - 0 W/m² -
1788315835 20° C 55% - 0 mm - 0 W/m² -
1788314635 20° C 54% - 0 mm - 0 W/m² -

* Rain latest hour (hover to see other rain measurements)
** Current wind speed in m/s (hover to see current wind gust speed)